sat.trackr.live / text

‹ back to catalog

STARLINK-4429

NORAD 53495 · 2022-099AG

PAYLOAD ACTIVE UNKNOWN

§ Identity

Operator
Country
US
Launch date
2022-08-12
Launch site
AFWTR
Launch vehicle
Mass (kg)
RCS (m²)

Purposes: comms

External: N2YO · Heavens-Above · Gunter

§ Orbital elements

Epoch: 2026-09-20T04:00:03.000096Z

Period
94.81 min
Inclination
97.2846°
Eccentricity
0.0001400
Mean motion
15.18902817 rev/d
Perigee alt
508.2 km
Apogee alt
510.1 km
Semi-major
6,887.3 km
B*
3.6757e-3
RAAN
17.0465°
Arg perigee
53.6705°
Mean anomaly
76.0865°
Rev number
582

§ Raw data

STARLINK-44291 53495U 22099AG  26263.16670139  .00077383  00000+0  36757-2 0  99972 53495  97.2846  17.0465 0001400  53.6705  76.0865 15.18902817  5827

JSON: /api/v1/satellites/53495 · /tle

For live sub-satellite position, see the globe view (requires WebGL).

§ Visibility from observer

Set your observer location to see the next 7 days of passes ≥ 10°. The values pass through the URL so the page stays shareable.

No JS? Fill the form by hand. The geolocation button needs JavaScript.